CW5404 Weather Reports


time (UTC)temp
C
wind
direction
speed
KPH
gust
KPH
rain 1hr
cm
rain 24hr
cm
rain mn
cm
humidity
%
barometer
mb
20260510184427 17 54 0.0 0.0 0.00 0.00 0.00 66 1019.0
20260510183927 17 51 0.0 4.8 0.00 0.00 0.00 66 1019.3
20260510182857 17 175 0.0 3.2 0.00 0.00 0.00 64 1019.3
20260510182427 17 75 0.0 4.8 0.00 0.00 0.00 66 1018.8
20260510181927 17 53 3.2 8.0 0.00 0.00 0.00 65 1018.8
20260510181427 17 100 4.8 8.0 0.00 0.00 0.00 66 1018.8
20260510180927 17 186 1.6 8.0 0.00 0.00 0.00 65 1018.8
20260510180427 17 130 1.6 8.0 0.00 0.00 0.00 67 1018.8
20260510175927 17 101 0.0 8.0 0.00 0.00 0.00 67 1018.8
20260510175356 17 215 0.0 6.4 0.00 0.00 0.00 66 1018.8
20260510174927 17 194 3.2 6.4 0.00 0.00 0.00 66 1018.8
20260510174426 17 219 3.2 8.0 0.00 0.00 0.00 68 1018.8
20260510173926 17 209 1.6 8.0 0.00 0.00 0.00 66 1018.7
20260510173356 16 197 0.0 8.0 0.00 0.00 0.00 66 1018.7
20260510172926 16 164 0.0 8.0 0.00 0.00 0.00 68 1018.7
20260510172426 16 94 0.0 8.0 0.00 0.00 0.00 69 1018.8
20260510171927 16 98 8.0 8.0 0.00 0.00 0.00 70 1018.8
20260510171356 16 108 3.2 4.8 0.00 0.00 0.00 70 1018.8
20260510170856 16 123 0.0 0.0 0.00 0.00 0.00 72 1018.8
20260510170426 16 161 0.0 0.0 0.00 0.00 0.00 71 1018.8
20260510165926 16 61 0.0 0.0 0.00 0.00 0.00 71 1018.8
20260510165426 16 36 0.0 0.0 0.00 0.00 0.00 72 1018.6
20260510164926 15 132 0.0 0.0 0.00 0.00 0.00 72 1018.6
20260510164426 15 132 0.0 0.0 0.00 0.00 0.00 72 1018.6
20260510163926 16 50 0.0 0.0 0.00 0.00 0.00 70 1018.5
20260510163356 15 68 0.0 0.0 0.00 0.00 0.00 71 1018.5
20260510162926 15 140 0.0 0.0 0.00 0.00 0.00 70 1018.5
20260510161926 15 124 0.0 0.0 0.00 0.00 0.00 73 1018.4
20260510161426 15 180 0.0 0.0 0.00 0.00 0.00 73 1018.4
20260510160926 15 167 0.0 0.0 0.00 0.00 0.00 75 1018.6
20260510155926 14 193 0.0 0.0 0.00 0.00 0.00 75 1018.6
20260510155426 14 163 0.0 0.0 0.00 0.00 0.00 77 1018.3
20260510154925 15 147 0.0 0.0 0.00 0.00 0.00 79 1018.3
20260510153855 14 154 0.0 0.0 0.00 0.00 0.00 81 1018.3
20260510150925 12 163 0.0 0.0 0.00 0.00 0.00 92 1018.1
20260510145925 12 163 0.0 0.0 0.00 0.00 0.00 93 1018.1
20260510142925 10 360 0.0 0.0 0.00 0.00 0.00 95 1017.9
20260510134925 8 77 0.0 0.0 0.00 0.00 0.00 95 1017.3
20260510134355 8 77 0.0 0.0 0.00 0.00 0.00 95 1017.3
20260510133925 8 77 0.0 0.0 0.00 0.00 0.00 95 1017.3
20260510133355 8 77 0.0 0.0 0.00 0.00 0.00 95 1017.3
20260510132925 8 77 0.0 0.0 0.00 0.00 0.00 94 1017.3
20260510132425 8 77 0.0 0.0 0.00 0.00 0.00 94 1017.3
20260510131425 8 77 0.0 0.0 0.00 0.00 0.00 94 1017.3
20260510130925 8 77 0.0 0.0 0.00 0.00 0.00 94 1017.3
20260510130424 8 77 0.0 0.0 0.00 0.00 0.00 93 1017.3
20260510125925 8 77 0.0 0.0 0.00 0.00 0.00 94 1017.3
20260510125425 8 77 0.0 0.0 0.00 0.00 0.00 94 1017.0
20260510124925 8 77 0.0 0.0 0.00 0.00 0.00 93 1017.0
20260510124425 8 77 0.0 0.0 0.00 0.00 0.00 93 1017.0
20260510123925 8 77 0.0 0.0 0.00 0.00 0.00 93 1017.1
20260510123424 8 77 0.0 0.0 0.00 0.00 0.00 93 1017.1
20260510122924 8 77 0.0 0.0 0.00 0.00 0.00 93 1017.1
20260510122425 8 77 0.0 0.0 0.00 0.00 0.00 93 1017.3
20260510121925 8 77 0.0 0.0 0.00 0.00 0.00 93 1017.3
20260510121425 8 77 0.0 0.0 0.00 0.00 0.00 93 1017.3
20260510120925 8 77 0.0 0.0 0.00 0.00 0.00 93 1017.0
20260510120424 8 77 0.0 0.0 0.00 0.00 0.00 93 1017.0
20260510115925 8 77 0.0 0.0 0.00 0.00 0.00 92 1017.0
20260510115425 8 77 0.0 0.0 0.00 0.00 0.00 92 1016.9
20260510114924 8 78 0.0 0.0 0.00 0.00 0.00 92 1016.9
20260510114424 8 77 0.0 0.0 0.00 0.00 0.00 92 1016.9
20260510113924 8 78 0.0 0.0 0.00 0.00 0.00 92 1016.9
20260510113424 8 78 0.0 0.0 0.00 0.00 0.00 93 1016.9
20260510112924 8 78 0.0 0.0 0.00 0.00 0.00 92 1016.9
20260510112425 8 78 0.0 0.0 0.00 0.00 0.00 92 1016.7
20260510111924 8 78 0.0 0.0 0.00 0.00 0.00 92 1016.7
20260510111424 8 78 0.0 0.0 0.00 0.00 0.00 92 1016.7
20260510110924 8 78 0.0 0.0 0.00 0.00 0.00 92 1017.0
20260510110424 8 78 0.0 0.0 0.00 0.00 0.00 92 1017.0
20260510105924 8 78 0.0 0.0 0.00 0.00 0.00 92 1017.0
20260510105424 9 77 0.0 0.0 0.00 0.00 0.00 92 1016.8
20260510104924 9 78 0.0 0.0 0.00 0.00 0.00 91 1016.8
20260510104424 9 78 0.0 0.0 0.00 0.00 0.00 91 1016.8
20260510103923 9 78 0.0 0.0 0.00 0.00 0.00 91 1016.3
20260510103423 9 78 0.0 0.0 0.00 0.00 0.00 91 1016.3
20260510102924 9 78 0.0 0.0 0.00 0.00 0.00 91 1016.3
20260510102423 9 78 0.0 0.0 0.00 0.00 0.00 90 1016.3
20260510101923 10 78 0.0 0.0 0.00 0.00 0.00 90 1016.3
20260510101424 10 78 0.0 0.0 0.00 0.00 0.00 90 1016.3
20260510100923 10 78 0.0 0.0 0.00 0.00 0.00 89 1016.2
20260510100423 10 78 0.0 0.0 0.00 0.00 0.00 89 1016.2
20260510095923 10 78 0.0 0.0 0.00 0.00 0.00 89 1016.2
20260510095423 10 78 0.0 0.0 0.00 0.00 0.00 89 1015.9
20260510094924 10 78 0.0 0.0 0.00 0.00 0.00 89 1015.9
20260510094423 10 78 0.0 0.0 0.00 0.00 0.00 89 1015.9
20260510093923 10 79 0.0 0.0 0.00 0.00 0.00 89 1015.7
20260510093423 10 360 0.0 0.0 0.00 0.00 0.00 89 1015.7
20260510092923 10 360 0.0 0.0 0.00 0.00 0.00 89 1015.7
20260510092424 10 360 0.0 0.0 0.00 0.00 0.00 89 1015.8
20260510091924 10 360 0.0 0.0 0.00 0.00 0.00 89 1015.8
20260510091423 11 360 0.0 0.0 0.00 0.00 0.00 88 1015.8
20260510085423 11 82 0.0 0.0 0.00 0.00 0.00 87 1016.0
20260510084923 11 360 0.0 0.0 0.00 0.00 0.00 87 1016.0
20260510084424 11 360 0.0 0.0 0.00 0.00 0.00 86 1016.0
20260510083923 11 360 0.0 0.0 0.00 0.00 0.00 86 1015.9
20260510083423 11 81 0.0 0.0 0.00 0.00 0.00 86 1015.9
20260510082923 11 81 0.0 0.0 0.00 0.00 0.00 86 1015.9
20260510082423 11 360 0.0 0.0 0.00 0.00 0.00 86 1015.6
20260510081923 12 360 0.0 0.0 0.00 0.00 0.00 85 1015.6
20260510081423 12 77 0.0 0.0 0.00 0.00 0.00 84 1015.6
20260510080923 12 76 0.0 0.0 0.00 0.00 0.00 84 1015.7
20260510080423 12 76 0.0 0.0 0.00 0.00 0.00 84 1015.7
20260510075923 12 76 0.0 0.0 0.00 0.00 0.00 83 1015.7
20260510075423 12 76 0.0 0.0 0.00 0.00 0.00 82 1015.6
20260510074923 12 76 0.0 0.0 0.00 0.00 0.00 82 1015.6
20260510074423 12 76 0.0 0.0 0.00 0.00 0.00 82 1015.6
20260510073923 12 76 0.0 0.0 0.00 0.00 0.00 81 1015.6
20260510073423 12 76 0.0 0.0 0.00 0.00 0.00 81 1015.6
20260510072922 12 76 0.0 0.0 0.00 0.00 0.00 81 1015.6
20260510072422 12 76 0.0 0.0 0.00 0.00 0.00 80 1015.5
20260510071922 12 76 0.0 0.0 0.00 0.00 0.00 80 1015.5
20260510071423 12 76 0.0 0.0 0.00 0.00 0.00 79 1015.5
20260510065922 13 76 0.0 0.0 0.00 0.00 0.00 77 1015.4
20260510065423 13 76 0.0 0.0 0.00 0.00 0.00 77 1015.4
20260510064923 13 77 0.0 1.6 0.00 0.00 0.00 76 1015.4
20260510064423 13 77 0.0 1.6 0.00 0.00 0.00 76 1015.4
20260510063923 13 76 0.0 3.2 0.00 0.00 0.00 76 1015.2
20260510063423 13 76 1.6 3.2 0.00 0.00 0.00 75 1015.2
20260510062922 13 74 0.0 0.0 0.00 0.00 0.00 75 1015.2
20260510062422 13 74 0.0 0.0 0.00 0.00 0.00 74 1015.1
20260510061922 13 74 0.0 0.0 0.00 0.00 0.00 74 1015.1
20260510061423 14 74 0.0 1.6 0.00 0.00 0.00 74 1015.1
20260510055922 15 87 0.0 0.0 0.00 0.00 0.00 71 1015.1
20260510055423 15 88 0.0 0.0 0.00 0.00 0.00 70 1015.1
20260510054922 15 87 0.0 0.0 0.00 0.00 0.00 69 1015.1
20260510054422 15 87 0.0 0.0 0.00 0.00 0.00 69 1015.1
20260510053922 15 87 0.0 0.0 0.00 0.00 0.00 69 1015.1
20260510053422 15 88 0.0 0.0 0.00 0.00 0.00 69 1015.1
20260510052922 16 87 0.0 0.0 0.00 0.00 0.00 68 1015.1
20260510052422 16 87 0.0 0.0 0.00 0.00 0.00 67 1015.0
20260510051922 16 87 0.0 3.2 0.00 0.00 0.00 66 1015.0
20260510051422 16 87 0.0 3.2 0.00 0.00 0.00 65 1015.0
20260510050922 16 182 0.0 3.2 0.00 0.00 0.00 65 1014.6
20260510045922 17 284 0.0 0.0 0.00 0.00 0.00 60 1014.6
20260510045422 17 284 0.0 0.0 0.00 0.00 0.00 59 1014.6
20260510044922 17 284 0.0 0.0 0.00 0.00 0.00 57 1014.6
20260510044421 18 284 0.0 0.0 0.00 0.00 0.00 56 1014.6
20260510043922 18 284 0.0 0.0 0.00 0.00 0.00 55 1014.4
20260510043422 18 284 0.0 1.6 0.00 0.00 0.00 53 1014.4
20260510042922 18 284 0.0 1.6 0.00 0.00 0.00 53 1014.4
20260510041921 18 238 0.0 0.0 0.00 0.00 0.00 53 1014.2
20260510041421 18 238 0.0 1.6 0.00 0.00 0.00 53 1014.2
20260510040921 18 238 0.0 1.6 0.00 0.00 0.00 53 1014.1
20260510040421 18 238 0.0 1.6 0.00 0.00 0.00 53 1014.1
20260510035921 19 238 0.0 3.2 0.00 0.00 0.00 53 1014.2
20260510035421 19 230 0.0 3.2 0.00 0.00 0.00 52 1014.0
20260510034922 19 286 0.0 0.0 0.00 0.00 0.00 51 1014.0
20260510034421 20 286 0.0 1.6 0.00 0.00 0.00 50 1014.0
20260510033921 20 286 0.0 1.6 0.00 0.00 0.00 48 1013.8
20260510030921 21 341 0.0 0.0 0.00 0.00 0.00 45 1013.8
20260510030421 21 344 0.0 0.0 0.00 0.00 0.00 47 1013.8
20260510025921 21 344 0.0 0.0 0.00 0.00 0.00 47 1013.8
20260510025421 21 344 0.0 0.0 0.00 0.00 0.00 49 1013.6
20260510024921 21 344 0.0 0.0 0.00 0.00 0.00 48 1013.6
20260510024421 22 344 0.0 0.0 0.00 0.00 0.00 48 1013.7
20260510023921 22 344 0.0 0.0 0.00 0.00 0.00 46 1013.7
20260510023421 22 344 0.0 0.0 0.00 0.00 0.00 47 1013.7
20260510022921 22 344 0.0 1.6 0.00 0.00 0.00 44 1013.7
20260510021921 22 345 0.0 0.0 0.00 0.00 0.00 42 1013.7
20260510021421 22 338 0.0 0.0 0.00 0.00 0.00 40 1013.7
20260510020920 23 338 0.0 0.0 0.00 0.00 0.00 36 1013.7
20260510020420 23 338 0.0 0.0 0.00 0.00 0.00 35 1013.7
20260510015920 23 338 0.0 0.0 0.00 0.00 0.00 37 1013.7
20260510015420 23 338 0.0 0.0 0.00 0.00 0.00 36 1013.7
20260510014920 23 338 0.0 0.0 0.00 0.00 0.00 37 1013.7
20260510013920 23 338 0.0 0.0 0.00 0.00 0.00 36 1013.8
20260510013420 23 338 0.0 1.6 0.00 0.00 0.00 38 1013.8
20260510012920 23 338 0.0 1.6 0.00 0.00 0.00 34 1013.8
20260510012421 23 338 0.0 0.0 0.00 0.00 0.00 35 1014.0
20260510011920 23 338 0.0 1.6 0.00 0.00 0.00 34 1014.0
20260510011420 23 338 0.0 3.2 0.00 0.00 0.00 35 1014.0
20260510010920 23 338 0.0 3.2 0.00 0.00 0.00 34 1014.1
20260510010420 24 142 0.0 3.2 0.00 0.00 0.00 35 1014.1
20260510005920 24 141 0.0 3.2 0.00 0.00 0.00 34 1014.1
20260510005420 24 142 1.6 3.2 0.00 0.00 0.00 33 1014.1
20260510004920 24 140 1.6 3.2 0.00 0.00 0.00 32 1014.1
20260510004420 24 75 1.6 3.2 0.00 0.00 0.00 36 1014.1
20260510003920 24 72 0.0 3.2 0.00 0.00 0.00 33 1014.1
20260510003420 24 74 0.0 3.2 0.00 0.00 0.00 31 1014.1
20260510002920 24 46 0.0 3.2 0.00 0.00 0.00 32 1014.1
20260510002420 24 48 3.2 3.2 0.00 0.00 0.00 29 1014.2
20260510001920 24 133 0.0 3.2 0.00 0.00 0.00 27 1014.2
20260510001420 24 133 0.0 3.2 0.00 0.00 0.00 27 1014.2
20260510000919 24 30 0.0 8.0 0.00 0.00 0.00 27 1014.5
20260510000419 24 15 0.0 8.0 0.00 0.00 0.00 28 1014.5
20260509235920 24 10 8.0 8.0 0.00 0.00 0.00 26 1014.5
20260509235419 24 91 1.6 8.0 0.00 0.00 0.00 26 1014.6
20260509234919 24 121 4.8 12.9 0.00 0.00 0.00 28 1014.6
20260509234420 24 56 1.6 12.9 0.00 0.00 0.00 26 1014.6
20260509233920 25 38 3.2 8.0 0.00 0.00 0.00 29 1014.7
20260509232919 24 106 3.2 8.0 0.00 0.00 0.00 28 1014.7
20260509232420 24 94 0.0 8.0 0.00 0.00 0.00 30 1014.7
20260509231919 24 63 3.2 8.0 0.00 0.00 0.00 31 1014.7
20260509230920 23 49 1.6 9.7 0.00 0.00 0.00 32 1015.0
20260509230419 23 31 0.0 9.7 0.00 0.00 0.00 35 1015.0
20260509225919 23 37 1.6 9.7 0.00 0.00 0.00 34 1015.0
20260509225419 23 73 0.0 8.0 0.00 0.00 0.00 36 1015.2
20260509224919 23 61 0.0 11.3 0.00 0.00 0.00 36 1015.2
20260509224419 23 42 1.6 11.3 0.00 0.00 0.00 36 1015.2
20260509223919 23 54 0.0 9.7 0.00 0.00 0.00 38 1015.4
20260509223419 23 190 3.2 8.0 0.00 0.00 0.00 41 1015.4
20260509222919 23 127 0.0 11.3 0.00 0.00 0.00 41 1015.4
20260509222419 23 59 3.2 11.3 0.00 0.00 0.00 43 1015.7
20260509221919 23 31 11.3 11.3 0.00 0.00 0.00 41 1015.7
20260509221419 23 45 8.0 11.3 0.00 0.00 0.00 42 1015.7
20260509220919 23 59 1.6 11.3 0.00 0.00 0.00 44 1016.1
20260509220419 23 71 0.0 9.7 0.00 0.00 0.00 41 1016.1
20260509215919 23 56 3.2 8.0 0.00 0.00 0.00 40 1016.1
20260509215419 23 49 0.0 12.9 0.00 0.00 0.00 38 1016.2
20260509211419 23 40 3.2 9.7 0.00 0.00 0.00 42 1016.7
20260509210419 22 166 0.0 8.0 0.00 0.00 0.00 46 1016.8
20260509205919 22 52 1.6 8.0 0.00 0.00 0.00 46 1016.8
20260509204919 22 69 4.8 16.1 0.00 0.00 0.00 46 1017.0
20260509204418 22 38 3.2 11.3 0.00 0.00 0.00 45 1017.0
20260509203918 22 84 3.2 8.0 0.00 0.00 0.00 47 1017.2
20260509203419 22 325 1.6 8.0 0.00 0.00 0.00 54 1017.2
20260509202918 21 5 0.0 11.3 0.00 0.00 0.00 55 1017.2
20260509202418 21 68 4.8 11.3 0.00 0.00 0.00 53 1017.3
20260509201918 21 337 3.2 11.3 0.00 0.00 0.00 50 1017.3
20260509201418 21 28 0.0 8.0 0.00 0.00 0.00 53 1017.3
20260509200918 21 360 0.0 8.0 0.00 0.00 0.00 58 1017.7
20260509200418 20 58 3.2 9.7 0.00 0.00 0.00 59 1017.7
20260509195918 20 26 4.8 9.7 0.00 0.00 0.00 55 1017.7
20260509195418 20 64 4.8 9.7 0.00 0.00 0.00 59 1017.8
20260509194918 20 71 0.0 9.7 0.00 0.00 0.00 55 1017.8
20260509194418 21 78 3.2 4.8 0.00 0.00 0.00 59 1017.8
20260509193918 21 48 1.6 4.8 0.00 0.00 0.00 61 1018.0
20260509193418 20 65 0.0 6.4 0.00 0.00 0.00 60 1018.0
20260509192918 20 20 1.6 9.7 0.00 0.00 0.00 61 1018.0
20260509192418 20 57 3.2 11.3 0.00 0.00 0.00 58 1018.3
20260509191918 20 77 6.4 11.3 0.00 0.00 0.00 60 1018.3
20260509191417 20 298 1.6 9.7 0.00 0.00 0.00 63 1018.3
20260509190917 19 326 1.6 9.7 0.00 0.00 0.00 61 1018.4
20260509190417 19 254 0.0 11.3 0.00 0.00 0.00 61 1018.4
20260509185417 19 36 1.6 11.3 0.00 0.00 0.00 61 1018.7
20260509184917 19 58 3.2 11.3 0.00 0.00 0.00 62 1018.7